This demonstration page uses our WeatherBlox Daily Observations layout. Learn more.

Left ArrowRight Arrow

Hourly Observations for July 5, 2021

Temp ( °F °C ) Dew Point ( °F °C ) Humidity (%) Winds ( mph kmh ) Pressure ( in mb ) Visibility ( mi km ) Precip ( " mm )
12:56 am 00:56 Clear 75 23.9 67 19.4 76 76 S 12 19 29.93 1014 10 16 0.00 0.00
1:56 am 01:56 Clear 73 22.8 67 19.4 81 81 S 10 17 29.93 1013 10 16 0.00 0.00
2:56 am 02:56 Clear 70 21.1 67 19.4 90 90 S 7 11 29.91 1013 10 16 0.00 0.00
3:56 am 03:56 Clear 69 20.6 66 18.9 90 90 S 5 7 29.90 1013 10 16 0.00 0.00
4:56 am 04:56 Clear 67 19.4 65 18.3 93 93 Calm 29.91 1013 10 16 0.00 0.00
5:56 am 05:56 Clear 67 19.4 65 18.3 93 93 S 3 6 29.93 1014 10 16 0.00 0.00
6:56 am 06:56 Sunny 67 19.4 65 18.3 93 93 S 5 7 29.94 1014 8 13 0.00 0.00
7:56 am 07:56 Sunny 71 21.7 67 19.4 87 87 S 8 13 29.95 1014 10 16 0.00 0.00
8:56 am 08:56 Sunny 76 24.4 69 20.6 79 79 S 10 17 29.97 1015 10 16 0.00 0.00
9:56 am 09:56 Sunny 79 26.1 70 21.1 74 74 SW 8 13 29.98 1015 10 16 0.00 0.00
10:56 am 10:56 Sunny 82 27.8 72 22.2 72 72 S 8 13 29.98 1015 10 16 0.00 0.00
11:56 am 11:56 Mostly Sunny 85 29.4 68 20 57 57 S 10 17 29.97 1015 10 16 0.00 0.00
12:56 pm 12:56 Mostly Cloudy 86 30 70 21.1 59 59 SSE 13 20 29.98 1015 10 16 0.00 0.00
1:56 pm 13:56 Mostly Sunny 88 31.1 68 20 52 52 S 9 15 29.96 1015 10 16 0.00 0.00
2:56 pm 14:56 Mostly Sunny 89 31.7 67 19.4 48 48 S 13 20 29.95 1014 10 16 0.00 0.00
3:56 pm 15:56 Mostly Sunny 88 31.1 67 19.4 50 50 S 14 22 29.93 1014 10 16 0.00 0.00
4:56 pm 16:56 Mostly Sunny 89 31.7 67 19.4 48 48 S 10 17 29.93 1013 10 16 0.00 0.00
5:56 pm 17:56 Sunny 89 31.7 67 19.4 48 48 S 12 19 29.92 1013 10 16 0.00 0.00
6:56 pm 18:56 Sunny 88 31.1 66 18.9 48 48 S 10 17 29.92 1013 10 16 0.00 0.00
7:56 pm 19:56 Sunny 85 29.4 70 21.1 61 61 SE 7 11 29.93 1014 10 16 0.00 0.00
8:56 pm 20:56 Sunny 80 26.7 69 20.6 69 69 SE 7 11 29.94 1014 10 16 0.00 0.00
9:56 pm 21:56 Clear 75 23.9 68 20 79 79 SE 7 11 29.96 1015 10 16 0.00 0.00
10:56 pm 22:56 Clear 73 22.8 67 19.4 81 81 SSE 7 11 29.97 1015 10 16 0.00 0.00
11:56 pm 23:56 Clear 72 22.2 65 18.3 79 79 SSE 7 11 29.97 1015 10 16 0.00 0.00

Powered by AerisWeather